Regional Weather Roundup
Issued by NWS

Home | Current Version | Previous Version | Text Only | Print | Product List | Glossary On
Versions: 1 2 3 4 5 6 7 8 9 10 11 12 13 14 15 16 17 18 19 20 21 22 23 24 25 26 27 28 29 30 31 32 33 34 35 36 37 38 39 40 41 42 43 44 45 46 47 48 49 50
000
ASUS44 KEWX 190610
RWRTX
SOUTH TEXAS REGIONAL WEATHER ROUNDUP
NATIONAL WEATHER SERVICE AUSTIN/SAN ANTONIO TX
1200 AM CST FRI DEC 19 2014

NOTE: "FAIR" INDICATED FEW OR NO CLOUDS BELOW 12,000 FEET WITH NO
SIGNIFICANT WEATHER AND/OR OBSTRUCTIONS TO VISIBILITY.

* - THESE STATIONS ARE NOT NWS OR FAA STATIONS...AND ARE NOT SUBJECT
    TO NWS AND FAA QUALITY CONTROL.

TXZ171-172-183>190-190700-
TEXAS HILL COUNTRY AND EDWARDS PLATEAU

CITY           SKY/WX    TMP DP  RH WIND       PRES   REMARKS
JUNCTION       CLOUDY    56  52  86 E9        30.07F
6HR MIN TEMP:  56; 6HR MAX TEMP:  63;

*LLANO         CLOUDY    50  48  93 E5        30.15R WCI  48
BURNET         CLOUDY    47  45  93 NE9       30.12S FOG     WCI  43
6HR MIN TEMP:  47; 6HR MAX TEMP:  58;

*HORSESHOE BAY CLOUDY    50  48  93 N3        30.12R THUNDER
6HR MIN TEMP:  50; 6HR MAX TEMP:  57;

*KERRVILLE     CLOUDY    54  52  93 N6        30.08R
6HR MIN TEMP:  54; 6HR MAX TEMP:  62;

*FREDERICKSBRG CLOUDY    51  50  97 NE8       30.09R FOG
6HR MIN TEMP:  51; 6HR MAX TEMP:  60;

*ROCKSPRINGS   CLOUDY    59  57  94 E5        30.07S
*BOERNE STAGE  CLOUDY    54  52  94 NE8       30.07S
*CASTROVILLE   CLOUDY    58  57  97 NE7       30.06R FOG
HONDO          LGT RAIN  59  57  93 NE7       30.06R FOG
6HR MIN TEMP:  59; 6HR MAX TEMP:  65; 6HR PCP:  0.02;

*UVALDE        CLOUDY    56  54  94 NE7       30.04F
6HR MIN TEMP:  56; 6HR MAX TEMP:  60;

DEL RIO        CLOUDY    60  55  83 CALM      30.02S
6HR MIN TEMP:  57; 6HR MAX TEMP:  65;

LAUGHLIN AFB   CLOUDY    59  54  83 N5        30.03R
6HR MIN TEMP:  58; 6HR MAX TEMP:  63;

CARRIZO SPRGS  CLOUDY    61  59  94 E3        30.01F FOG
$$

TXZ173-191>194-202-209-217>225-228-190700-
CENTRAL AND SOUTH CENTRAL TEXAS

CITY           SKY/WX    TMP DP  RH WIND       PRES   REMARKS
GEORGETOWN     CLOUDY    50  46  87 N12       30.10R WCI  46
6HR MIN TEMP:  48; 6HR MAX TEMP:  55;

AUSTIN/BERGSTM RAIN      50  50 100 N15       30.09R FOG     WCI  45
6HR MIN TEMP:  50; 6HR MAX TEMP:  57; 6HR PCP:  0.20;

AUSTIN/MABRY   CLOUDY    51  49  92 VRB3      30.12R FOG
6HR MIN TEMP:  51; 6HR MAX TEMP:  57;

*AUSTIN/EXEC   CLOUDY    48  48 100 N10G18    30.11R FOG     WCI  44
*LAGO VISTA    CLOUDY    49  47  92 N10       30.10R THUNDER FOG
6HR MIN TEMP:  49; 6HR MAX TEMP:  56;

SAN MARCOS     CLOUDY    54  50  87 N13       30.08R THUNDER
6HR MIN TEMP:  54; 6HR MAX TEMP:  59; 6HR PCP:  0.35;

NEW BRAUNFELS  LGT RAIN  54  32  43 N9        30.05F
6HR MIN TEMP:  54; 6HR MAX TEMP:  61; 6HR PCP:  0.32;

RANDOLPH AFB   LGT RAIN  55  54  94 NE10      30.05S FOG
6HR MIN TEMP:  55; 6HR MAX TEMP:  60; 6HR PCP:  0.77;

PT SAN ANTONIO LGT RAIN  56  56  99 NE12      30.03R FOG
6HR MIN TEMP:  56; 6HR MAX TEMP:  63; 6HR PCP:  0.24;

SAN ANTONIO    LGT RAIN  57  54  89 N10       30.05S FOG
6HR MIN TEMP:  57; 6HR MAX TEMP:  63; 6HR PCP:  0.04;

STINSON FIELD  LGT RAIN  57  55  93 NE9       30.03S FOG
6HR MIN TEMP:  56; 6HR MAX TEMP:  62; 6HR PCP:  0.39;

*PLEASANTON    CLOUDY    58  57  96 NE7       30.03F
6HR MIN TEMP:  58; 6HR MAX TEMP:  64; 6HR PCP:  0.10;

*LA GRANGE     TSTM      58  57  97 N8        30.04R
6HR MIN TEMP:  58; 6HR MAX TEMP:  61; 6HR PCP:  0.38;

*GIDDINGS      LGT RAIN  53  52  97 N8        30.11S
6HR MIN TEMP:  53; 6HR MAX TEMP:  57; 6HR PCP:  0.05;

*GONZALES      TSTM      57  57  99 N8        30.04S
6HR MIN TEMP:  57; 6HR MAX TEMP:  61; 6HR PCP:  1.46;

$$

TXZ163>164-176>182-195>201-210>213-226-227-235-190700-
SOUTHEAST TEXAS

CITY           SKY/WX    TMP DP  RH WIND       PRES   REMARKS
COLLEGE STN    CLOUDY    53  52  96 N14       30.07F FOG
6HR MIN TEMP:  53; 6HR MAX TEMP:  59; 6HR PCP: TRACE;

*BRYAN         CLOUDY    52  52  99 N10       30.09F THUNDER FOG
6HR MIN TEMP:  52; 6HR MAX TEMP:  57;

*CALDWELL      TSTM      52  52 100 N7        30.11S
*CROCKETT      CLOUDY    54  54 100 NE9       30.14S
*BRENHAM       TSTM      57  56  96 N9        30.05S
6HR MIN TEMP:  57; 6HR MAX TEMP:  62; 6HR PCP:  0.12;

HUNTSVILLE     LGT RAIN  55  53  93 NE6       30.06F
6HR MIN TEMP:  55; 6HR MAX TEMP:  60; 6HR PCP:  0.01;

CONROE         LGT RAIN  56  55  97 E8        30.04F FOG
6HR MIN TEMP:  56; 6HR MAX TEMP:  61; 6HR PCP:  0.24;

HOUSTON BUSH   LGT RAIN  59  58  96 E10       30.04F FOG
6HR MIN TEMP:  59; 6HR MAX TEMP:  64; 6HR PCP:  0.11;

HOUSTON HOBBY  LGT RAIN  61  59  93 E12       30.02F FOG
6HR MIN TEMP:  61; 6HR MAX TEMP:  66; 6HR PCP: TRACE;

*HOUSTON SW AP TSTM      52  52 100 NE3G9     30.02F
6HR MIN TEMP:  52; 6HR MAX TEMP:  58;

PEARLAND       HVY RAIN  61  60  97 E8        30.03F FOG
6HR MIN TEMP:  61; 6HR MAX TEMP:  67; 6HR PCP:  0.06;

HOUSTON HOOKS  LGT RAIN  59  57  94 N9        30.06F
ELLINGTON FLD  RAIN      61  61 100 NE9       30.03  FOG
SUGAR LAND     RAIN      62  60  93 E9        30.00F FOG
6HR MIN TEMP:  62; 6HR MAX TEMP:  69; 6HR PCP:  0.10;

*HOUSTON EXEC  LGT RAIN  59  57  94 NE13G20   30.02S
*CLEVELAND MUN TSTM      56  55  97 CALM      30.08R
6HR MIN TEMP:  56; 6HR MAX TEMP:  61; 6HR PCP:  0.06;

*WHARTON       CLOUDY    62  61  96 E9        30.01F THUNDER FOG
6HR MIN TEMP:  62; 6HR MAX TEMP:  66; 6HR PCP:  0.01;

*COLUMBUS      RAIN      59  59  98 NW6       30.05R
6HR MIN TEMP:  59; 6HR MAX TEMP:  62; 6HR PCP:  0.65;

$$

TXZ214>216-236>238-190700-
THE UPPER TEXAS COAST

CITY           SKY/WX    TMP DP  RH WIND       PRES   REMARKS
*ORANGE        CLOUDY    57  55  92 NE7       30.07F
6HR MIN TEMP:  57; 6HR MAX TEMP:  58;

PORT ARTHUR    CLOUDY    58  56  93 NE13      30.03F FOG
6HR MIN TEMP:  58; 6HR MAX TEMP:  59;

GALVESTON      CLOUDY    61  61 100 E14       30.01F
6HR MIN TEMP:  60; 6HR MAX TEMP:  66; 6HR PCP:  0.14;

ANGLETON       LGT RAIN  61  61 100 E8        30.01F FOG
6HR MIN TEMP:  60; 6HR MAX TEMP:  65; 6HR PCP:  0.09;

*BAY CITY        N/A     64  64 100 E13       30.00F
PALACIOS       CLOUDY    65  64  97 E8        29.99F
6HR MIN TEMP:  65; 6HR MAX TEMP:  71; 6HR PCP:  0.31;

$$

TXZ229>234-239>247-190700-
TEXAS COASTAL BEND AND RIO GRANDE PLAINS

CITY           SKY/WX    TMP DP  RH WIND       PRES   REMARKS
VICTORIA       CLOUDY    64  63  96 NE5       30.00S FOG
6HR MIN TEMP:  63; 6HR MAX TEMP:  65; 6HR PCP:  0.07;

*BEEVILLE      RAIN      64  64 100 NE5       29.99F
6HR MIN TEMP:  63; 6HR MAX TEMP:  64;

ROCKPORT       CLOUDY    68  66  93 SE5       29.98S
6HR MIN TEMP:  68; 6HR MAX TEMP:  69; 6HR PCP:  0.02;

*PORT ARANSAS  MOCLDY    67  65  94 S6        29.98S
6HR MIN TEMP:  67; 6HR MAX TEMP:  69;

*PORT LAVACA   CLOUDY    66  65  97 E9        30.00S FOG
6HR MIN TEMP:  64; 6HR MAX TEMP:  66; 6HR PCP:  0.12;

*INGLESIDE     CLOUDY    69  65  89 S9        29.98S
CORPUS CHRISTI CLOUDY    69  67  93 S8        29.98F
6HR MIN TEMP:  69; 6HR MAX TEMP:  71; 6HR PCP:  0.01;

CORPUS NAS     CLOUDY    70  68  93 S10       29.98F
6HR MIN TEMP:  69; 6HR MAX TEMP:  71; 6HR PCP: TRACE;

*ROBSTOWN      NOT AVBL
ALICE          CLOUDY    69  67  93 SE5       29.97F FOG
6HR MIN TEMP:  68; 6HR MAX TEMP:  70; 6HR PCP:  0.05;

KINGSVILLE NAS CLOUDY    70  70 100 SE5       29.98F FOG
6HR MIN TEMP:  70; 6HR MAX TEMP:  70; 6HR PCP:  0.01;

COTULLA        CLOUDY    61  59  93 NE7       30.02S FOG
6HR MIN TEMP:  61; 6HR MAX TEMP:  67; 6HR PCP:  0.08;

LAREDO         CLOUDY    64 N/A N/A CALM      30.02F FOG
$$

TXZ248>255-190700-
DEEP SOUTH TEXAS

CITY           SKY/WX    TMP DP  RH WIND       PRES   REMARKS
BROWNSVILLE    CLOUDY    71  67  87 SE9       29.99F
6HR MIN TEMP:  70; 6HR MAX TEMP:  73;

PORT ISABEL    CLOUDY    70  67  90 SE12      29.97F
6HR MIN TEMP:  70; 6HR MAX TEMP:  73;

*SOUTH PADRE   CLOUDY   N/A N/A N/A NE3       29.98S
HARLINGEN      CLOUDY    69  68  96 S3        29.97F
6HR MIN TEMP:  69; 6HR MAX TEMP:  70;

*HEBBRONVILLE  CLOUDY    64  64  97 CALM      30.00S



USA.gov is the U.S. government's official web portal to all federal, state and local government web resources and services.